Regional Weather Roundup
Issued by NWS

Home | Current Version | Previous Version | Graphics & Text | Print | Product List | Glossary On
Versions: 1 2 3 4 5 6 7 8 9 10 11 12 13 14 15 16 17 18 19 20 21 22 23 24 25 26 27 28 29 30 31 32 33 34 35 36 37 38 39 40 41 42 43 44 45 46 47 48 49 50
000
ASUS43 KLOT 270810
RWRIL

ILLINOIS REGIONAL WEATHER ROUNDUP
NATIONAL WEATHER SERVICE CHICAGO/ROMEOVILLE IL
200 AM CST FRI FEB 27 2015

NOTE: "FAIR" INDICATES FEW OR NO CLOUDS BELOW 12,000 FEET WITH NO
SIGNIFICANT WEATHER AND/OR OBSTRUCTIONS TO VISIBILITY.

* THESE STATIONS ARE NOT UNDER NWS QUALITY CONTROL. THEY ALSO MAY NOT
  REPORT WEATHER SUCH AS PRECIPITATION OR FOG.

ILZ001-002-007-009-015-016-024-270900-
NORTHWEST ILLINOIS

CITY           SKY/WX    TMP DP  RH WIND       PRES   REMARKS
MOLINE         FAIR      -7 -13  75 W7        30.54R WCI -21
STERLING*      CLEAR     -8 -13  77 W5        30.50R WCI -19
SAVANNA*       CLEAR    -12 -17  77 CALM      30.52R
$$

ILZ003-004-008-010-011-017-018-270900-
NORTH CENTRAL ILLINOIS

CITY           SKY/WX    TMP DP  RH WIND       PRES   REMARKS
ROCKFORD       CLEAR     -9 -16  71 CALM      30.49R
FREEPORT*      CLEAR     -9 -14  78 CALM      30.49R
ROCHELLE*      CLEAR    -15 -19  81 CALM      30.48R
DE KALB*       CLEAR     -5 -12  73 NW8       30.45R WCI -21
PERU*          CLEAR     -3  -8  76 NW10      30.50R WCI -20
$$

ILZ005-006-012>014-019>023-270900-
NORTHEAST ILLINOIS

CITY           SKY/WX    TMP DP  RH WIND       PRES   REMARKS
CHICAGO-OHARE  CLEAR      0  -8  69 NW8       30.44R WCI -14
CHICAGO-MIDWAY PTCLDY     6  -4  63 NW6       30.45R WCI  -4
AURORA         CLEAR    -12 -19  71 W8        30.47R WCI -29
LANSING*       PTCLDY     1  -6  72 W5        30.44R WCI  -8
JOLIET*        CLEAR     -8 -12  81 CALM      30.48R
WAUKEGAN       CLEAR     -1  -8  72 W7        30.44R WCI -14
DUPAGE AIRPORT FAIR      -3 -10  72 CALM      30.44R
KANKAKEE*      CLEAR     -5 -10  81 W7        30.47R WCI -19
WHEELING       CLEAR      2  -7  66 NW8       30.46R WCI -12
MORRIS*        CLEAR     -9 -13  79 NW8       30.48R WCI -25
ROMEOVILLE*    CLEAR     -3  -9  75 NW7       30.46R WCI -16
NORTHERLY ISL    N/A     11  -2  56 NW10        N/A  WCI  -2
$$

LMZ740>746-270900-
SOUTHERN LAKE MICHIGAN

STATION/POSITION SKY/WX   TEMP    WIND        PRES    VSBY  WAVE
                          AIR SEA DIR/SP/G                  HT/PER
                          (F)     (DEG/KT/KT) (MB)    (MI)  (FT/S)
WAUKEGAN HARBOR             4     300/  6/ 10   N/A
HARRISON CRIB              10     310/ 15/ 18   N/A
BURNHAM HARBOR             11     300/  8/ 14   N/A
CALUMET HARBOR              8     280/  7/ 10 1029.4R
MICHIGAN CITY              10      40/  7/  9   N/A
$$

ILZ025>027-034>036-040-047-049-050-058-095>099-270900-
WEST-CENTRAL ILLINOIS

CITY           SKY/WX    TMP DP  RH WIND       PRES   REMARKS
QUINCY         CLEAR     -3 -10  72 W6        30.57R WCI -15
GALESBURG*     CLEAR     -9 -13  83 W7        30.52S WCI -24
MACOMB*        CLEAR     -7 -12  79 W10       30.57R WCI -25
JACKSONVILLE*  CLEAR     -1  -8  72 W8        30.56R WCI -15
PITTSFIELD*    PTCLDY     0  -7  72 W3        30.58R
$$

ILZ028>032-037-038-041>044-048-051>054-059>061-270900-
CENTRAL ILLINOIS

CITY           SKY/WX    TMP DP  RH WIND       PRES   REMARKS
PONTIAC        CLEAR     -1  -6  78 NW10      30.50R WCI -17
BLOOMINGTON    CLEAR     -1  -6  79 NW9       30.48R WCI -16
DECATUR        PTCLDY     4  -3  73 NW10      30.51R WCI -11
PEORIA         CLEAR     -1  -9  68 NW3       30.53R
LACON*         CLEAR     -9 -14  76 CALM      30.52R
LINCOLN*       CLEAR      2  -4  73 W6        30.56R WCI  -9
SPRINGFIELD    CLEAR      0  -7  72 W8        30.54R WCI -14
TAYLORVILLE    CLEAR      1  -4  78 W5        30.53R WCI  -8
$$

ILZ033-039-045-046-055>057-062-063-270900-
EAST-CENTRAL ILLINOIS

CITY           SKY/WX    TMP DP  RH WIND       PRES   REMARKS
CHAMPAIGN      PTCLDY     5  -2  72 NW8       30.47R WCI  -8
DANVILLE*      CLOUDY     7  -1  67 NW6       30.44R WCI  -3
RANTOUL*       PTCLDY     4  -2  74 NW8       30.47R WCI  -9
MATTOON        CLOUDY    11   3  70 NW9       30.48R WCI  -2
PARIS*         CLOUDY     8   3  78 NW3       30.48R
$$

ILZ079-100>102-270900-
SOUTHWEST ILLINOIS

CITY           SKY/WX    TMP DP  RH WIND       PRES   REMARKS
ALTON          PTCLDY     5  -5  62 NW5       30.57R WCI  -4
BELLEVILLE     PTCLDY     7  -1  69 NW12      30.56R WCI  -8
CAHOKIA*       CLEAR      9  -1  64 NW14      30.58R WCI  -7
SPARTA*        PTCLDY     9   1  70 N8        30.56R WCI  -3
$$

ILZ064>066-069>071-074>076-080>082-084>086-088>090-092>094-270900-
SOUTH-CENTRAL ILLINOIS

CITY           SKY/WX    TMP DP  RH WIND       PRES   REMARKS
CARBONDALE     FLURRIES  12   4  70 NW13      30.53R WCI  -3
CAIRO*         CLEAR     19  13  75 N10       30.52R WCI   8
EFFINGHAM*     FLURRIES  11   4  74 W8        30.53R WCI  -1
MARION         CLOUDY    16   7  67 N6        30.53R WCI   7
MT. VERNON     MOCLDY    12   3  67 NW7       30.52R WCI   2
CENTRALIA*     CLOUDY    10   2  70 NW12      30.53S WCI  -4
SALEM*         CLOUDY    11   4  71 NW9       30.53R WCI  -1
METROPOLIS*    FLURRIES  17  13  83 NW8       30.50R WCI   7
$$

ILZ067-068-072-073-078-083-087-091-270900-
SOUTHEAST ILLINOIS

CITY           SKY/WX    TMP DP  RH WIND       PRES   REMARKS
LAWRENCEVILLE  CLOUDY    12   3  67 NW12      30.50R WCI  -2
FLORA*         LGT SNOW  13   9  83 NW8       30.52R WCI   2
FAIRFIELD*     LGT SNOW  14  10  83 NW6       30.51R WCI   5
HARRISBURG*    FLURRIES  16  11  80 NW9       30.53R WCI   5
ROBINSON*      CLOUDY    10   3  75 NW8       30.51R WCI  -2
CARMI*         LGT SNOW  19  17  91 NW12      30.50R WCI   7
$$

ABBREVIATIONS USED IN REMARKS
   TC - TEMPERATURE IN CELSIUS
  WCI - WIND CHILL INDEX
   HX - HEAT INDEX
  VSB - VISIBILITY
$$



USA.gov is the U.S. government's official web portal to all federal, state and local government web resources and services.